Home   Weather   St. Albert   Past weeks

Flag for Canada Past Weather in St. Albert, Alberta, Canada — Yesterday and Last 2 Weeks

Now
18 °F

Cold.


Feels Like: 5 °F
Forecast: -1 / 8 °F
Wind: 13 mph from Northwest

Location: Edmonton Municipal

Current Time: Dec 4, 2016 at 5:46:31 pm

Latest Report: Dec 4, 2016 at 5:00 pm


Visibility: N/A

Pressure: 29.83 "Hg (27.43 "Hg at 653m altitude)

Humidity: 90%

Dew Point: 16 °F

Location of St. AlbertLocation

Past Weather in St. Albert — Graph

°F

St. Albert Temperature Yesterday

Maximum temperature yesterday: 38 °F (at 2:00 pm)
Minimum temperature yesterday: 23 °F (at 4:00 am)
Average temperature yesterday: 30 °F

High & Low Weather Summary for the Past Weeks

 TemperatureHumidityPressure
High40 °F (Nov 25, 12:00 pm)100% (Nov 20, 6:00 am)30.16 "Hg (Nov 20, 6:00 am)
Low15 °F (Nov 29, 1:00 am)54% (Nov 24, 2:00 pm)29.44 "Hg (Nov 27, 3:00 pm)
Average26 °F89%29.86 "Hg
* Reported Nov 19 5:00 pm — Dec 4 5:00 pm, St. Albert, Weather by CustomWeather, © 2016

Note: Actual official high and low records may vary slightly from our data, if they occured in-between our weather recording intervals... More about our weather records

Advertising

St. Albert Weather History for the Previous 24 Hours

Scroll right to see more
 ConditionsComfort  
Time TempWeatherWind HumidityBarometerVisibility
5:00 pm
Sun, Dec 4
18 °FCold.13 mph90%29.83 "HgN/A
4:00 pm24 °FCold.17 mph78%29.78 "HgN/A
3:00 pm26 °FChilly.16 mph68%29.74 "HgN/A
2:00 pm28 °FChilly.14 mph66%29.72 "HgN/A
1:00 pm28 °FChilly.12 mph62%29.70 "HgN/A
12:00 pm28 °FChilly.13 mph60%29.72 "HgN/A
11:00 am27 °FChilly.12 mph59%29.72 "HgN/A
10:00 am25 °FChilly.9 mph61%29.72 "HgN/A
9:00 am23 °FCold.6 mph64%29.71 "HgN/A
8:00 am23 °FCold.6 mph65%29.71 "HgN/A
7:00 am24 °FCold.7 mph69%29.72 "HgN/A
6:00 am25 °FChilly.8 mph62%29.71 "HgN/A
5:00 am25 °FChilly.7 mph67%29.72 "HgN/A
4:00 am26 °FChilly.6 mph67%29.73 "HgN/A
3:00 am26 °FChilly.6 mph70%29.74 "HgN/A
2:00 am25 °FChilly.5 mph68%29.75 "HgN/A
1:00 am25 °FChilly.5 mph67%29.76 "HgN/A
12:00 am25 °FChilly.5 mph67%29.76 "HgN/A
11:00 pm
Sat, Dec 3
28 °FChilly.6 mph62%29.76 "HgN/A
10:00 pm29 °FChilly.5 mph63%29.76 "HgN/A
9:00 pm31 °FChilly.7 mph62%29.78 "HgN/A
8:00 pm31 °FChilly.8 mph64%29.78 "HgN/A
7:00 pm32 °FChilly.8 mph64%29.77 "HgN/A
6:00 pm33 °FChilly.6 mph61%29.77 "HgN/A
5:00 pm33 °FChilly.3 mph61%29.78 "HgN/A
Weather by CustomWeather, © 2016

See weather overviewHow to use our weather pages